• In Netherlands
  • List of Countries
  • For 7 days
  • Water Temperature
  • Satellite Maps
  • Weather Map
  • Weather Widgets
  • user-avatar
    Login

    Hourly Weather Gabrovo

    Today, 24 September, Monday

    Time Temperature Precipitation Wind Pressure Humidity
    00:00 +18°C° 0 mm 2 mps 704 mmHg 63%
    01:00 +18°C° 0 mm 2 mps 703 mmHg 66%
    02:00 +17°C° 0 mm 2 mps 703 mmHg 69%
    03:00 +17°C° 0 mm 2 mps 702 mmHg 69%
    04:00 +18°C° 0 mm 1 mps 702 mmHg 69%
    05:00 +16°C° 0 mm 1 mps 701 mmHg 70%
    06:00 +18°C° 0 mm 1 mps 701 mmHg 66%
    07:00 +20°C° 0 mm 1 mps 701 mmHg 62%
    08:00 +21°C° 0 mm 1 mps 701 mmHg 57%
    09:00 +23°C° 0 mm 1 mps 701 mmHg 50%
    10:00 +25°C° 0 mm 1 mps 701 mmHg 42%
    11:00 +28°C° 0 mm 2 mps 701 mmHg 35%
    12:00 +28°C° 0 mm 2 mps 701 mmHg 33%
    13:00 +29°C° 0 mm 3 mps 701 mmHg 31%
    14:00 +30°C° 0 mm 3 mps 701 mmHg 28%
    15:00 +28°C° 0 mm 5 mps 701 mmHg 33%
    16:00 +26°C° 0 mm 6 mps 701 mmHg 38%
    17:00 +23°C° 0 mm 8 mps 701 mmHg 43%
    18:00 +20°C° 0 mm 7 mps 702 mmHg 47%
    19:00 +17°C° 0 mm 7 mps 702 mmHg 50%
    20:00 +14°C° 0 mm 6 mps 703 mmHg 53%
    21:00 +13°C° 0 mm 6 mps 704 mmHg 53%
    22:00 +11°C° 0 mm 6 mps 704 mmHg 53%
    23:00 +10°C° 0 mm 6 mps 705 mmHg 52%

    Tomorrow, 25 September, Tuesday

    Time Temperature Precipitation Wind Pressure Humidity
    00:00 +10°C° 0 mm 6 mps 705 mmHg 52%
    01:00 +9°C° 0 mm 6 mps 705 mmHg 51%
    02:00 +9°C° 0 mm 5 mps 706 mmHg 50%
    03:00 +8°C° 0 mm 5 mps 706 mmHg 51%
    04:00 +8°C° 0 mm 4 mps 706 mmHg 51%
    05:00 +7°C° 0 mm 4 mps 707 mmHg 52%
    06:00 +8°C° 0 mm 4 mps 707 mmHg 50%
    07:00 +8°C° 0 mm 4 mps 708 mmHg 47%
    08:00 +8°C° 0 mm 4 mps 708 mmHg 45%
    09:00 +10°C° 0 mm 5 mps 708 mmHg 40%
    10:00 +12°C° 0 mm 5 mps 709 mmHg 35%
    11:00 +13°C° 0 mm 5 mps 709 mmHg 30%
    12:00 +14°C° 0 mm 5 mps 709 mmHg 28%
    13:00 +15°C° 0 mm 5 mps 709 mmHg 26%
    14:00 +15°C° 0 mm 5 mps 709 mmHg 24%
    15:00 +15°C° 0 mm 5 mps 709 mmHg 25%
    16:00 +14°C° 0 mm 5 mps 709 mmHg 25%
    17:00 +14°C° 0 mm 5 mps 708 mmHg 26%
    18:00 +12°C° 0 mm 4 mps 709 mmHg 30%
    19:00 +10°C° 0 mm 3 mps 709 mmHg 34%
    20:00 +8°C° 0 mm 2 mps 709 mmHg 37%
    21:00 +8°C° 0 mm 2 mps 710 mmHg 40%
    22:00 +7°C° 0 mm 2 mps 710 mmHg 42%
    23:00 +6°C° 0 mm 2 mps 711 mmHg 45%

    Day after tomorrow, 26 September, Wednesday

    Time Temperature Precipitation Wind Pressure Humidity
    00:00 +6°C° 0 mm 2 mps 711 mmHg 45%
    01:00 +6°C° 0 mm 2 mps 711 mmHg 46%
    02:00 +7°C° 0 mm 1 mps 711 mmHg 47%
    03:00 +6°C° 0 mm 1 mps 711 mmHg 48%
    04:00 +6°C° 0 mm 1 mps 711 mmHg 49%
    05:00 +6°C° 0 mm 1 mps 712 mmHg 50%
    06:00 +6°C° 0 mm 2 mps 712 mmHg 49%
    07:00 +6°C° 0 mm 2 mps 712 mmHg 47%
    08:00 +7°C° 0 mm 2 mps 713 mmHg 45%
    09:00 +9°C° 0 mm 2 mps 713 mmHg 41%
    10:00 +10°C° 0 mm 3 mps 713 mmHg 38%
    11:00 +12°C° 0 mm 4 mps 713 mmHg 34%
    12:00 +12°C° 0 mm 4 mps 713 mmHg 34%
    13:00 +13°C° 0 mm 4 mps 713 mmHg 33%
    14:00 +13°C° 0 mm 5 mps 713 mmHg 32%
    15:00 +12°C° 0 mm 5 mps 712 mmHg 33%
    16:00 +12°C° 0 mm 5 mps 712 mmHg 35%
    17:00 +11°C° 0 mm 4 mps 712 mmHg 36%
    18:00 +10°C° 0 mm 4 mps 712 mmHg 40%
    19:00 +8°C° 0 mm 3 mps 712 mmHg 44%
    20:00 +6°C° 0 mm 2 mps 712 mmHg 49%
    21:00 +6°C° 0 mm 2 mps 712 mmHg 50%
    22:00 +5°C° 0 mm 2 mps 713 mmHg 51%
    23:00 +5°C° 0 mm 2 mps 713 mmHg 53%

    27 September, Thursday

    Time Temperature Precipitation Wind Pressure Humidity
    00:00 +4°C° 0 mm 2 mps 712 mmHg 54%
    01:00 +4°C° 0 mm 2 mps 712 mmHg 55%
    02:00 +3°C° 0 mm 2 mps 712 mmHg 55%
    03:00 +3°C° 0 mm 2 mps 712 mmHg 57%
    04:00 +3°C° 0 mm 2 mps 712 mmHg 58%
    05:00 +2°C° 0 mm 2 mps 711 mmHg 59%
    06:00 +4°C° 0 mm 2 mps 711 mmHg 54%
    07:00 +5°C° 0 mm 2 mps 712 mmHg 50%
    08:00 +7°C° 0 mm 2 mps 712 mmHg 45%
    09:00 +8°C° 0 mm 2 mps 712 mmHg 40%
    10:00 +10°C° 0 mm 2 mps 712 mmHg 35%
    11:00 +12°C° 0 mm 3 mps 712 mmHg 30%
    12:00 +13°C° 0 mm 3 mps 711 mmHg 28%
    13:00 +14°C° 0 mm 3 mps 711 mmHg 26%
    14:00 +16°C° 0 mm 3 mps 710 mmHg 24%
    15:00 +16°C° 0 mm 3 mps 710 mmHg 25%
    16:00 +14°C° 0 mm 3 mps 710 mmHg 26%
    17:00 +15°C° 0 mm 2 mps 709 mmHg 27%
    18:00 +13°C° 0 mm 2 mps 709 mmHg 32%
    19:00 +10°C° 0 mm 2 mps 709 mmHg 36%
    20:00 +8°C° 0 mm 2 mps 709 mmHg 40%
    21:00 +7°C° 0 mm 2 mps 708 mmHg 40%
    22:00 +8°C° 0 mm 1 mps 708 mmHg 40%
    23:00 +7°C° 0 mm 1 mps 708 mmHg 41%

    28 September, Friday

    Time Temperature Precipitation Wind Pressure Humidity
    00:00 +7°C° 0 mm 1 mps 708 mmHg 41%
    01:00 +7°C° 0 mm 1 mps 708 mmHg 41%
    02:00 +7°C° 0 mm 1 mps 707 mmHg 41%
    03:00 +6°C° 0 mm 1 mps 707 mmHg 42%
    04:00 +6°C° 0 mm 1 mps 707 mmHg 42%
    05:00 +6°C° 0 mm 1 mps 707 mmHg 42%
    06:00 +8°C° 0 mm 1 mps 707 mmHg 39%
    07:00 +9°C° 0 mm 1 mps 707 mmHg 37%
    08:00 +10°C° 0 mm 1 mps 707 mmHg 34%
    09:00 +13°C° 0 mm 1 mps 707 mmHg 32%
    10:00 +15°C° 0 mm 1 mps 707 mmHg 29%
    11:00 +17°C° 0 mm 2 mps 707 mmHg 26%
    12:00 +18°C° 0 mm 2 mps 707 mmHg 25%
    13:00 +19°C° 0 mm 2 mps 706 mmHg 25%
    14:00 +20°C° 0 mm 3 mps 706 mmHg 24%
    15:00 +19°C° 0 mm 2 mps 705 mmHg 27%
    16:00 +19°C° 0 mm 2 mps 705 mmHg 29%
    17:00 +19°C° 0 mm 2 mps 705 mmHg 31%
    18:00 +16°C° 0 mm 2 mps 704 mmHg 37%
    19:00 +14°C° 0 mm 2 mps 704 mmHg 43%
    20:00 +12°C° 0 mm 1 mps 704 mmHg 48%
    21:00 +11°C° 0 mm 1 mps 703 mmHg 52%
    22:00 +11°C° 0 mm 1 mps 703 mmHg 57%
    23:00 +10°C° 0 mm 1 mps 703 mmHg 61%

    29 September, Saturday

    Time Temperature Precipitation Wind Pressure Humidity
    00:00 +10°C° 0 mm 1 mps 703 mmHg 64%
    01:00 +10°C° 0 mm 1 mps 702 mmHg 66%
    02:00 +10°C° 0 mm 1 mps 702 mmHg 69%
    03:00 +9°C° 0 mm 1 mps 702 mmHg 70%
    04:00 +9°C° 0 mm 1 mps 701 mmHg 71%
    05:00 +9°C° 0 mm 1 mps 701 mmHg 72%
    06:00 +10°C° 0 mm 1 mps 701 mmHg 67%
    07:00 +11°C° 0 mm 0 mps 701 mmHg 62%
    08:00 +12°C° 0 mm 0 mps 702 mmHg 58%
    09:00 +15°C° 0 mm 1 mps 702 mmHg 51%
    10:00 +18°C° 0 mm 1 mps 702 mmHg 45%
    11:00 +20°C° 0 mm 1 mps 702 mmHg 39%
    12:00 +21°C° 0 mm 1 mps 702 mmHg 37%
    13:00 +21°C° 0 mm 2 mps 701 mmHg 35%
    14:00 +21°C° 0 mm 2 mps 701 mmHg 33%
    15:00 +21°C° 0 mm 2 mps 701 mmHg 35%
    16:00 +21°C° 0 mm 1 mps 701 mmHg 37%
    17:00 +21°C° 0 mm 1 mps 701 mmHg 38%
    18:00 +19°C° 0 mm 1 mps 701 mmHg 42%
    19:00 +18°C° 0 mm 1 mps 701 mmHg 45%
    20:00 +15°C° 0 mm 1 mps 700 mmHg 48%
    21:00 +14°C° 0 mm 1 mps 701 mmHg 48%
    22:00 +14°C° 0 mm 1 mps 701 mmHg 48%
    23:00 +14°C° 0 mm 2 mps 701 mmHg 48%
    Show more